TimePDT,TemperatureF,Dew PointF,Humidity,Sea Level PressureIn,VisibilityMPH,Wind Direction,Wind SpeedMPH,Gust SpeedMPH,PrecipitationIn,Events,Conditions,WindDirDegrees,DateUTC
12:50 AM,81.0,57.0,44,29.70,10.0,SSE,20.7,25.3,N/A,,Clear,160,2013-09-10 07:50:00
1:50 AM,80.1,55.9,43,29.70,10.0,SE,9.2,18.4,N/A,,Clear,140,2013-09-10 08:50:00
2:50 AM,80.1,54.0,40,29.71,10.0,Variable,3.5,-,N/A,,Clear,0,2013-09-10 09:50:00
3:50 AM,75.9,54.0,46,29.72,10.0,North,8.1,-,N/A,,Clear,10,2013-09-10 10:50:00
4:50 AM,73.9,54.0,50,29.74,10.0,NNE,6.9,-,N/A,,Clear,20,2013-09-10 11:50:00
5:50 AM,73.0,54.0,51,29.76,10.0,Calm,Calm,-,N/A,,Clear,0,2013-09-10 12:50:00
6:50 AM,72.0,54.0,53,29.78,10.0,Calm,Calm,-,N/A,,Clear,0,2013-09-10 13:50:00
7:50 AM,75.0,54.0,48,29.80,10.0,Calm,Calm,-,N/A,,Clear,0,2013-09-10 14:50:00
8:50 AM,79.0,55.0,44,29.81,10.0,NE,3.5,-,N/A,,Clear,40,2013-09-10 15:50:00
9:50 AM,84.0,54.0,35,29.82,10.0,East,13.8,-,N/A,,Clear,90,2013-09-10 16:50:00
10:50 AM,84.0,53.1,34,29.81,10.0,East,13.8,19.6,N/A,,Clear,100,2013-09-10 17:50:00
11:50 AM,88.0,55.0,32,29.80,10.0,ENE,15.0,21.9,N/A,,Clear,70,2013-09-10 18:50:00
12:50 PM,87.1,52.0,30,29.80,10.0,East,8.1,-,N/A,,Clear,100,2013-09-10 19:50:00
1:50 PM,90.0,52.0,27,29.77,10.0,ENE,9.2,-,N/A,,Clear,60,2013-09-10 20:50:00
2:50 PM,88.0,51.1,28,29.76,10.0,East,13.8,-,N/A,,Clear,90,2013-09-10 21:50:00
3:36 PM,89.6,51.8,27,29.83,9.0,East,10.4,-,N/A,,Partly Cloudy,90,2013-09-10 22:36:00
3:50 PM,89.1,51.1,27,29.75,10.0,East,10.4,-,N/A,,Clear,90,2013-09-10 22:50:00
4:50 PM,89.1,51.1,27,29.74,10.0,NE,10.4,-,N/A,,Clear,40,2013-09-10 23:50:00
5:50 PM,88.0,52.0,29,29.74,10.0,NE,8.1,-,N/A,,Clear,50,2013-09-11 00:50:00
6:50 PM,84.9,53.1,33,29.75,10.0,ENE,5.8,-,N/A,,Clear,60,2013-09-11 01:50:00
7:50 PM,81.0,55.0,41,29.77,10.0,NE,4.6,-,N/A,,Clear,40,2013-09-11 02:50:00
8:50 PM,82.0,54.0,38,29.80,10.0,Variable,4.6,-,N/A,,Clear,0,2013-09-11 03:50:00
9:50 PM,80.1,54.0,40,29.81,10.0,West,3.5,-,N/A,,Clear,270,2013-09-11 04:50:00
10:50 PM,75.0,54.0,48,29.83,10.0,NE,5.8,-,N/A,,Clear,50,2013-09-11 05:50:00
11:50 PM,73.9,55.0,52,29.83,10.0,Calm,Calm,-,N/A,,Clear,0,2013-09-11 06:50:00